AXIOM-3 DEB

Last updated on Fri Feb 16 2024 00:02:04 GMT+0000 (Coordinated Universal Time)

1 58953U 24014B 24046.46294172 .00837549 30972-3 13527-2 0 9992 2 58953 51.2786 200.7611 0101386 79.0807 282.1583 15.93625561 954

Satellite not in orbit